Lake Martin Weather Center

Moon Phase Calendar



Lake Martin Water Level
Online Cameras

 


      

Current Conditions in Dadeville
11/26/2020 9:33:39 AM

66°F
Feels Like 69
Clouds
Humidity
88%
Pressure
30.12"
Wind
2 mph (W)
Dew Point
62°F
UV Index
3/10 (Moderate)
Visibility
6 mi

Hourly Forecast

Date & Time Thu, Nov 26
9:00 AM
Thu, Nov 26
10:00 AM
Thu, Nov 26
11:00 AM
Thu, Nov 26
12:00 PM
Thu, Nov 26
1:00 PM
Thu, Nov 26
2:00 PM
Thu, Nov 26
3:00 PM
Thu, Nov 26
4:00 PM
Thu, Nov 26
5:00 PM
Thu, Nov 26
6:00 PM
Thu, Nov 26
7:00 PM
Thu, Nov 26
8:00 PM
Thu, Nov 26
9:00 PM
Thu, Nov 26
10:00 PM
Thu, Nov 26
11:00 PM
Fri, Nov 27
12:00 AM
Fri, Nov 27
1:00 AM
Fri, Nov 27
2:00 AM
Fri, Nov 27
3:00 AM
Fri, Nov 27
4:00 AM
Fri, Nov 27
5:00 AM
Fri, Nov 27
6:00 AM
Fri, Nov 27
7:00 AM
Fri, Nov 27
8:00 AM
Fri, Nov 27
9:00 AM
Fri, Nov 27
10:00 AM
Fri, Nov 27
11:00 AM
Fri, Nov 27
12:00 PM
Fri, Nov 27
1:00 PM
Fri, Nov 27
2:00 PM
Fri, Nov 27
3:00 PM
Fri, Nov 27
4:00 PM
Fri, Nov 27
5:00 PM
Fri, Nov 27
6:00 PM
Fri, Nov 27
7:00 PM
Fri, Nov 27
8:00 PM
Fri, Nov 27
9:00 PM
Fri, Nov 27
10:00 PM
Fri, Nov 27
11:00 PM
Sat, Nov 28
12:00 AM
Sat, Nov 28
1:00 AM
Sat, Nov 28
2:00 AM
Sat, Nov 28
3:00 AM
Sat, Nov 28
4:00 AM
Sat, Nov 28
5:00 AM
Sat, Nov 28
6:00 AM
Sat, Nov 28
7:00 AM
Sat, Nov 28
8:00 AM
Condition
Clouds

Clouds

Clouds

Clouds

Clouds

Clouds

Clouds

Clouds

Clouds

Clouds

Clear

Clear

Clear

Clear

Clear

Clear

Clear

Clouds

Clouds

Clouds

Clouds

Clouds

Clouds

Clouds

Clouds

Clouds

Clouds

Clouds

Clouds

Clouds

Clouds

Clouds

Clouds

Rain

Rain

Rain

Rain

Rain

Clouds

Rain

Rain

Clouds

Clouds

Clouds

Clouds

Clouds

Rain

Clouds
Temperature 66°F65°F67°F71°F72°F73°F72°F69°F65°F62°F61°F59°F58°F57°F57°F56°F56°F56°F56°F56°F57°F55°F55°F60°F65°F69°F73°F74°F74°F73°F72°F68°F65°F63°F63°F62°F62°F63°F63°F62°F62°F61°F61°F60°F61°F61°F60°F61°F
Feels Like 69°F68°F69°F73°F74°F74°F73°F71°F66°F63°F60°F58°F56°F55°F55°F54°F54°F54°F55°F54°F55°F52°F52°F58°F63°F67°F72°F72°F72°F71°F72°F68°F65°F64°F63°F63°F63°F64°F64°F63°F62°F62°F61°F61°F61°F61°F61°F61°F
Cloudiness 90%95%98%91%36%38%35%31%30%25%3%4%3%2%5%9%2%14%25%25%29%27%25%13%22%41%52%60%100%100%100%100%100%100%100%100%100%100%100%100%100%100%100%100%100%100%100%100%
Visibility 6 mi6 mi6 mi6 mi6 mi6 mi6 mi6 mi6 mi6 mi6 mi6 mi6 mi6 mi6 mi6 mi6 mi6 mi6 mi6 mi6 mi6 mi6 mi6 mi6 mi6 mi6 mi6 mi6 mi6 mi6 mi6 mi6 mi6 mi6 mi6 mi6 mi6 mi6 mi6 mi6 mi6 mi6 mi6 mi6 mi6 mi6 mi6 mi
Precipitation 52%52%39%39%31%31%25%25%18%18%4%4%3%16%23%23%21%21%21%21%21%21%1%0%0%0%0%0%0%0%0%0%5%40%89%94%93%88%88%92%59%65%68%67%53%47%37%12%
Humidity 88%88%84%75%71%68%67%74%82%84%83%80%76%74%74%74%75%76%74%75%72%74%72%63%51%46%41%39%40%43%53%61%66%71%79%87%94%95%95%96%96%96%96%95%94%94%95%90%
Dew Point 62°F62°F62°F63°F62°F62°F61°F61°F59°F58°F56°F53°F51°F49°F49°F48°F48°F48°F48°F48°F48°F47°F46°F48°F47°F47°F48°F48°F48°F50°F54°F54°F53°F54°F56°F59°F61°F62°F61°F61°F61°F60°F60°F59°F59°F59°F59°F59°F
Pressure 30.12"30.12"30.12"30.09"30.06"30.03"30.03"30.03"30.06"30.06"30.09"30.09"30.09"30.09"30.09"30.09"30.09"30.09"30.09"30.09"30.09"30.12"30.12"30.12"30.12"30.12"30.09"30.06"30.06"30.03"30"30"30.03"30.06"30.06"30.06"30.06"30.06"30.03"30.03"30.03"30.03"30.03"30.03"30.06"30.06"30.09"30.12"
Wind Speed 1.9 mph2 mph1.9 mph3.6 mph4.7 mph4.8 mph4.8 mph3.4 mph3.3 mph3.4 mph3.6 mph3.4 mph3.6 mph3.4 mph2.8 mph3 mph2.6 mph2.5 mph2.5 mph2.7 mph2.8 mph3 mph2.8 mph1.7 mph2.5 mph1.8 mph1.4 mph2.4 mph2.2 mph2.8 mph1.7 mph2.1 mph0.8 mph0.7 mph3.4 mph4.3 mph4.5 mph6.3 mph4.2 mph4.7 mph5.6 mph4.6 mph4.4 mph4.4 mph4.9 mph5 mph4 mph4.9 mph
Wind
Direction
271°
W
276°
W
293°
WNW
266°
W
259°
W
266°
W
270°
W
279°
W
297°
WNW
312°
NW
341°
NNW
348°
NNW

N

N

N
15°
NNE
23°
NNE
23°
NNE
25°
NNE
15°
NNE
27°
NNE
18°
NNE
33°
NNE
36°
NE
70°
ENE
125°
SE
135°
SE
141°
SE
176°
S
184°
S
175°
S
198°
SSW
130°
SE
151°
SSE
253°
WSW
221°
SW
241°
WSW
206°
SSW
257°
WSW
266°
W
258°
WSW
275°
W
290°
WNW
302°
WNW
299°
WNW
304°
NW
319°
NW
329°
NNW

Daily Forecast

Date High Low Precip. Humidity
Today
Nov 26

Rain
71 °F
58 °F
100%
81%
Friday
Nov 27

Rain
74 °F
55 °F
93%
39%
Saturday
Nov 28

Rain
66 °F
56 °F
92%
66%
Sunday
Nov 29

Rain
59 °F
53 °F
100%
93%
Monday
Nov 30

Rain
58 °F
33 °F
100%
64%
Tuesday
Dec 1

Clear
44 °F
28 °F
0%
55%
Wednesday
Dec 2

Rain
55 °F
30 °F
100%
42%
Thursday
Dec 3

Rain
46 °F
34 °F
100%
63%
Friday
Dec 4

Clear
47 °F
30 °F
0%
56%
Saturday
Dec 5

Clear
49 °F
31 °F
0%
53%
Sunday
Dec 6

Clear
53 °F
32 °F
0%
54%
Monday
Dec 7

Clear
46 °F
31 °F
0%
53%
Tuesday
Dec 8

Clear
48 °F
28 °F
0%
49%
Wednesday
Dec 9

Clear
51 °F
31 °F
0%
45%
Thursday
Dec 10

Clouds
53 °F
33 °F
0%
43%
Friday
Dec 11

Clear
56 °F
37 °F
0%
44%


Temperature 8-14 Day Outlook



Precipitation 8-14 Day Outlook






About Us
Contact Us
Site Map
Search Site
Advertise With Us
   
www.LakeMartin.com
THE LAKE MARTIN WEBSITE

Copyright 2020, Lakes Online
Privacy    |    Legal